sat.trackr.live / text

‹ back to catalog

STARLINK-37202

NORAD 68731 · 2026-082D

PAYLOAD ACTIVE UNKNOWN

§ Identity

Operator
Country
US
Launch date
2026-04-15
Launch site
AFWTR
Launch vehicle
Mass (kg)
RCS (m²)

Purposes: comms

External: N2YO · Heavens-Above · Gunter

§ Orbital elements

Epoch: 2026-09-19T22:13:47.581824Z

Period
93.91 min
Inclination
97.2847°
Eccentricity
0.0002466
Mean motion
15.33459449 rev/d
Perigee alt
463.8 km
Apogee alt
467.2 km
Semi-major
6,843.6 km
B*
6.0769e-4
RAAN
125.0240°
Arg perigee
84.4390°
Mean anomaly
275.7134°
Rev number
2,421

§ Raw data

STARLINK-372021 68731U 26082D   26262.92624516  .00019604  00000+0  60769-3 0  99962 68731  97.2847 125.0240 0002466  84.4390 275.7134 15.33459449 24219

JSON: /api/v1/satellites/68731 · /tle

For live sub-satellite position, see the globe view (requires WebGL).

§ Visibility from observer

Set your observer location to see the next 7 days of passes ≥ 10°. The values pass through the URL so the page stays shareable.

No JS? Fill the form by hand. The geolocation button needs JavaScript.